Location: Castifao
(42.5040°N, 9.1124°E)
Time: 04:04:58
(UTC+00:00)

Cosmos 1328 - Pass Details

Date: 23 January 2020
Orbit: 535 x 549 km, 82.5° (Epoch: 16 February)

Event Time Altitude Azimuth Distance (km) Brightness Sun altitude
Rises 17:50:09 0° 183° (S) 2,706 7.6 -15.7°
Reaches altitude 10° 17:52:18 10° 182° (S) 1,817 6.6 -16.0°
Maximum altitude 17:56:18 77° 97° (E) 569 3.7 -16.8°
Drops below altitude 10° 18:00:19 10° 11° (N) 1,830 6.3 -17.5°
Enters shadow 18:00:44 - 11° (N) 1,996 6.5 -17.6°
